Weather History for Marietta, GA

Change the Weather History Date:

Wednesday, October 10, 2012

  Actual Average Record
Temperature  
Mean Temperature 60 °F -  
Max Temperature 72 °F 71 °F 85 °F (2014)
Min Temperature 49 °F 53 °F 35 °F (2000)
Degree Days  
Heating Degree Days 6    
Growing Degree Days 10 (Base 50)    
Moisture  
Dew Point 50 °F    
Average Humidity 82    
Maximum Humidity 94    
Minimum Humidity 57    
Precipitation  
Precipitation 0.00 in - - ()
Sea Level Pressure  
Sea Level Pressure 30.13 in    
Wind  
Wind Speed 2 mph (NW)    
Max Wind Speed 13 mph    
Max Gust Speed 20 mph    
Visibility 10 miles    
Events      
Averages and records for this station are not official NWS values.
T = Trace of Precipitation, MM = Missing Value Source: NWS Daily Summary

Daily Weather History Graph

Daily Weather History Graph

Search for Another Location

Airport:

Trip Planner

Search our weather history database for the weather conditions in past years. The results will help you decide how hot, cold, wet, or windy it might be!

Date:

Astronomy

Oct. 10, 2012 Rise Set
Actual Time 7:39 AM EDT 7:09 PM EDT
Civil Twilight 7:14 AM EDT 7:34 PM EDT
Nautical Twilight 6:45 AM EDT 8:03 PM EDT
Astronomical Twilight 6:16 AM EDT 8:32 PM EDT
Moon 2:28 AM EDT (10/10) 3:59 PM EDT (10/10)
Length of Visible Light 12h 20m
Length of Day
11h 30m
Waning Crescent, 27% of the Moon is Illuminated
Oct 10
Waning Crescent
Oct 15
New
Oct 21
First Quarter
Oct 29
Full
Nov 6
Last Quarter

Hourly Weather History & Observations

Time (EDT) Temp. Dew Point Humidity Pressure Visibility Wind Dir Wind Speed Gust Speed Precip Events Conditions
12:33 AM 53.6 °F 50.0 °F 88% 30.11 in 8.0 mi Calm Calm - N/A   Clear
12:34 AM 53.6 °F 50.0 °F 88% 30.11 in 8.0 mi Calm Calm - N/A   Clear
12:55 AM 52.3 °F 49.6 °F 91% 30.11 in 10.0 mi Calm Calm - N/A   Scattered Clouds
1:55 AM 51.6 °F 48.7 °F 90% 30.11 in 10.0 mi Calm Calm - N/A   Clear
2:55 AM 50.7 °F 48.2 °F 91% 30.10 in 10.0 mi Calm Calm - N/A   Clear
3:55 AM 50.0 °F 47.3 °F 90% 30.10 in 10.0 mi Calm Calm - N/A   Clear
4:45 AM 50.0 °F 48.2 °F 94% 30.11 in 10.0 mi Calm Calm - N/A   Mostly Cloudy
4:55 AM 50.2 °F 48.0 °F 92% 30.11 in 10.0 mi Calm Calm - N/A   Mostly Cloudy
4:58 AM 50.0 °F 48.2 °F 94% 30.11 in 10.0 mi Calm Calm - N/A   Mostly Cloudy
5:02 AM 50.0 °F 48.2 °F 94% 30.11 in 10.0 mi Calm Calm - N/A   Overcast
5:31 AM 50.0 °F 48.2 °F 94% 30.11 in 10.0 mi Calm Calm - N/A   Overcast
5:35 AM 50.0 °F 48.2 °F 94% 30.11 in 10.0 mi Calm Calm - N/A   Overcast
5:39 AM 50.0 °F 48.2 °F 94% 30.11 in 10.0 mi Calm Calm - N/A   Overcast
5:49 AM 50.0 °F 48.2 °F 94% 30.11 in 10.0 mi Calm Calm - N/A   Mostly Cloudy
5:55 AM 50.7 °F 48.2 °F 91% 30.11 in 10.0 mi Calm Calm - N/A   Mostly Cloudy
5:57 AM 50.0 °F 48.2 °F 94% 30.11 in 10.0 mi Calm Calm - N/A   Mostly Cloudy
6:24 AM 50.0 °F 48.2 °F 94% 30.12 in 10.0 mi Calm Calm - N/A   Mostly Cloudy
6:43 AM 50.0 °F 48.2 °F 94% 30.13 in 10.0 mi Calm Calm - N/A   Mostly Cloudy
6:55 AM 49.8 °F 47.5 °F 92% 30.13 in 10.0 mi Calm Calm - N/A   Scattered Clouds
7:55 AM 49.5 °F 47.3 °F 92% 30.15 in 10.0 mi North 3.5 mph - N/A   Partly Cloudy
8:55 AM 52.2 °F 48.4 °F 87% 30.16 in 10.0 mi Calm Calm - N/A   Partly Cloudy
9:55 AM 56.7 °F 52.2 °F 85% 30.16 in 10.0 mi West 6.9 mph - N/A   Mostly Cloudy
10:55 AM 62.4 °F 50.9 °F 66% 30.17 in 10.0 mi WNW 10.4 mph 19.6 mph N/A   Mostly Cloudy
12:55 PM 65.7 °F 52.0 °F 61% 30.16 in 10.0 mi WNW 8.1 mph - N/A   Mostly Cloudy
1:55 PM 68.2 °F 53.4 °F 59% 30.15 in 10.0 mi West 11.5 mph - N/A   Mostly Cloudy
2:55 PM 67.5 °F 53.8 °F 61% 30.13 in 10.0 mi WNW 8.1 mph - N/A   Mostly Cloudy
3:55 PM 69.4 °F 53.6 °F 57% 30.12 in 10.0 mi WNW 12.7 mph - N/A   Mostly Cloudy
4:55 PM 70.3 °F 54.3 °F 57% 30.11 in 10.0 mi NW 9.2 mph - N/A   Scattered Clouds
5:55 PM 70.3 °F 54.3 °F 57% 30.11 in 10.0 mi NW 11.5 mph - N/A   Partly Cloudy
6:55 PM 67.5 °F 54.5 °F 63% 30.12 in 10.0 mi WNW 6.9 mph - N/A   Partly Cloudy
7:55 PM 64.6 °F 54.1 °F 69% 30.14 in 10.0 mi NW 4.6 mph - N/A   Clear
8:55 PM 63.0 °F 54.3 °F 73% 30.16 in 10.0 mi Calm Calm - N/A   Clear
9:55 PM 59.4 °F 53.6 °F 81% 30.17 in 10.0 mi NW 3.5 mph - N/A   Clear
10:55 PM 59.4 °F 53.2 °F 80% 30.18 in 10.0 mi NW 5.8 mph - N/A   Clear
11:55 PM 57.0 °F 51.6 °F 82% 30.19 in 10.0 mi NW 3.5 mph - N/A   Clear